User: anonymous
Location: Ostrava
(49.8330°N, 18.2830°E)
Time: 15:22:05
(UTC+02:00)
Language:

Explorer 7 - Orbit

View from above orbital plane
View from above orbital plane
View from above satellite
View from above satellite

Ground track
Ground track

The orbit data is extracted from the following two-line orbital elements,

1 00022U 59009A   14234.42488733  .00001117  00000-0  11789-3 0  9966
2 00022 050.2857 335.4350 0153854 073.9619 287.8209 14.89561827907527
Epoch (UTC): 22 August 2014 10:11:50
Eccentricity: 0.0153854
inclination: 50.2857°
perigee height: 492 km
apogee height: 706 km
right ascension of ascending node: 335.4350°
argument of perigee: 73.9619°
revolutions per day: 14.89561827
mean anomaly at epoch: 287.8209°
orbit number at epoch: 90752

The dashed part of the orbit path shows where the satellite is in the earth's shadow,  

DLR